Theta_e
330 328 328 328 328 327 328 327 326 325 324 325 324 323 327 330 327 326 329 329 329 333 331 331 334 336 336 335 335 336 337 339 339 339 339 339 340 339 338 338 338 339 340 340 341 340 340 339 339 339 340 341 342 343 344 344 345 345 345 345 344 344 344 342 341 342 343 344 343 341 340 339 340 340 340 341 340 340 341 342 342 342 343 340 341
327 328 328 327 327 326 326 325 325 324 323 323 321 321 327 329 323 321 326 327 328 331 329 332 336 336 337 337 336 337 337 338 338 339 339 339 339 337 336 337 337 338 339 339 339 339 339 338 337 338 340 342 343 344 344 345 346 345 344 344 345 344 344 343 342 342 343 344 343 341 340 339 340 340 340 340 340 340 340 341 342 342 343 342 340
328 328 326 325 324 323 323 322 324 323 321 320 318 320 326 327 321 317 320 322 326 330 330 333 336 337 338 338 338 338 337 338 338 338 340 340 337 335 335 335 336 337 337 337 338 337 336 335 333 335 340 343 344 344 344 343 344 345 345 344 344 344 344 344 343 343 342 343 343 341 340 340 341 341 340 340 340 340 340 340 341 341 342 343 341
327 325 322 320 318 318 316 316 320 321 318 317 317 323 328 326 321 318 318 321 326 330 333 335 337 338 338 338 338 338 338 339 338 339 340 338 335 335 336 335 335 334 334 335 334 334 333 332 333 337 341 343 344 344 343 342 342 343 344 345 345 345 344 344 343 343 342 342 343 342 341 340 341 341 340 340 339 340 340 339 340 340 342 343 342
324 320 317 314 314 312 311 313 316 317 317 318 323 327 327 325 320 319 322 324 328 332 335 336 337 339 338 337 338 339 339 339 339 340 339 337 335 335 334 334 334 333 333 334 334 335 336 338 339 341 342 342 344 345 345 344 344 344 345 346 347 346 345 345 343 342 342 343 343 343 341 340 341 341 341 340 339 340 340 339 339 339 341 343 342
320 316 314 312 312 310 311 314 314 319 324 323 327 329 326 324 319 316 323 328 330 334 336 337 337 339 339 338 339 339 339 339 338 338 338 337 335 335 334 334 335 334 335 338 340 340 340 341 341 341 340 341 343 345 345 345 345 346 346 346 347 347 347 347 346 343 343 344 343 342 342 340 341 341 341 341 340 340 340 339 339 339 341 343 342
317 315 313 311 310 310 314 316 316 325 329 324 326 328 324 325 320 313 322 329 331 334 336 337 338 338 338 339 339 337 337 338 338 339 339 339 338 339 339 338 339 338 339 341 342 341 340 340 340 340 340 340 341 342 343 345 345 346 346 346 347 347 347 347 347 344 343 344 343 342 342 340 340 341 341 342 341 340 340 339 340 339 340 342 342
317 315 313 310 311 315 316 318 322 327 327 323 325 326 322 321 319 313 319 328 331 335 336 336 338 339 339 340 339 337 337 337 339 341 340 340 341 341 342 341 341 339 339 340 340 340 340 340 339 338 339 340 341 341 342 344 345 346 347 347 347 347 346 347 348 346 342 342 343 342 341 340 341 341 342 342 341 341 341 340 340 339 339 340 341
316 314 312 311 314 320 322 323 327 327 323 324 324 322 319 317 316 314 317 326 332 334 336 337 337 338 339 339 339 338 338 338 338 339 339 340 342 341 341 341 339 338 338 338 338 340 339 339 340 339 339 340 341 342 342 343 345 346 347 347 347 347 347 347 348 346 343 342 343 342 340 341 343 342 342 342 342 342 341 341 340 340 339 339 340
315 312 311 311 315 321 324 326 328 325 322 324 323 318 314 313 313 312 315 324 330 332 335 336 337 337 338 338 338 338 338 337 338 338 339 339 339 340 339 340 339 337 337 338 338 339 339 338 340 340 340 339 340 342 343 343 345 347 347 348 348 348 347 348 347 344 343 342 343 343 340 341 343 343 341 340 341 342 342 341 340 340 339 339 340
313 311 309 313 319 322 323 324 325 322 320 322 323 317 311 312 312 311 317 325 327 330 334 335 337 336 336 337 337 336 336 336 337 338 338 338 338 338 337 339 340 337 335 338 338 338 338 338 339 340 340 340 341 343 343 344 345 346 347 349 349 348 348 348 345 343 343 343 343 342 341 341 342 342 341 340 340 341 341 342 341 340 340 339 340
312 310 308 312 320 322 321 323 323 320 318 320 320 314 310 313 314 312 319 326 327 328 331 334 336 336 335 336 336 336 335 335 336 336 336 336 337 337 337 338 338 337 336 337 337 336 337 338 338 338 339 341 341 342 344 345 345 346 347 349 348 348 348 347 345 344 344 344 342 341 341 341 340 341 341 341 340 339 340 342 341 340 341 339 339
311 309 310 314 320 321 320 322 323 320 318 318 315 311 311 314 316 317 320 325 326 325 328 333 335 335 336 335 335 335 335 334 334 335 335 335 335 336 337 337 336 336 337 338 337 335 336 337 338 337 338 340 340 342 343 344 345 345 346 348 348 348 347 345 345 346 346 345 343 342 343 342 341 341 340 341 340 339 340 341 342 341 340 340 339
309 310 313 317 320 321 321 320 321 320 319 319 316 311 313 314 314 320 323 324 324 322 325 331 333 334 334 334 335 335 334 333 332 333 333 333 333 333 334 335 334 333 336 339 339 336 336 337 338 338 338 339 340 341 342 342 343 344 345 347 347 347 347 346 345 346 346 345 344 343 343 342 342 341 341 341 341 340 340 340 341 342 341 341 340
311 315 317 317 319 322 322 318 315 316 317 320 320 315 313 313 312 316 324 326 324 320 321 326 329 333 333 333 334 333 334 333 331 331 331 330 330 329 330 331 332 333 334 337 338 336 336 336 337 339 339 339 340 342 342 342 342 344 344 345 346 346 347 346 345 345 346 345 344 344 344 342 342 342 341 341 341 341 341 340 340 341 341 341 341
315 321 320 316 317 319 320 318 311 312 316 317 321 319 315 315 313 314 320 325 326 323 320 320 323 329 332 333 332 331 331 331 329 329 330 328 327 326 326 327 329 332 333 333 334 335 336 335 336 338 339 339 340 343 343 341 342 343 344 344 344 344 345 346 345 344 345 345 344 345 345 344 342 341 341 341 342 341 341 341 341 341 341 341 341
315 320 320 316 314 313 313 313 308 309 315 316 319 318 314 314 315 315 318 322 326 325 322 321 318 320 323 327 330 330 329 326 324 326 327 327 326 324 324 324 326 330 332 332 332 333 335 335 335 336 337 338 339 341 343 341 341 342 342 343 344 343 344 345 345 345 345 345 345 345 345 345 344 343 342 341 342 341 341 342 342 342 342 342 341
313 314 316 313 309 308 307 308 307 308 313 316 319 318 313 310 312 316 318 320 324 325 324 324 321 318 318 320 322 325 325 322 322 324 323 323 323 322 323 323 327 330 329 330 330 332 334 333 334 335 335 336 337 339 341 340 340 340 340 341 342 343 343 344 344 345 345 345 345 344 344 345 345 344 343 343 342 341 341 342 343 344 343 343 342
312 311 311 308 305 305 305 308 310 312 314 316 317 318 314 308 308 313 316 318 322 324 324 325 324 323 323 322 322 323 324 323 322 323 323 323 321 323 323 323 328 330 328 328 330 332 333 332 334 334 334 335 335 338 340 338 338 338 337 338 340 341 342 343 344 344 344 345 344 345 345 345 345 344 344 344 343 342 342 342 344 345 345 343 342
310 311 310 308 306 306 307 310 313 314 315 315 315 315 314 311 310 313 316 318 320 322 323 324 324 324 324 324 324 324 324 323 323 323 324 323 322 324 325 323 327 330 330 330 331 332 332 332 333 333 334 335 335 337 337 335 336 336 335 335 337 339 341 342 344 344 343 344 344 344 345 345 345 345 345 344 344 344 344 343 343 344 345 344 343
308 310 309 309 309 309 309 312 315 315 316 316 315 315 313 312 313 314 317 319 319 320 322 323 323 323 324 323 323 324 324 324 323 324 324 324 323 325 325 324 326 329 330 329 330 331 332 332 332 332 333 334 335 336 336 334 335 334 333 333 333 336 339 341 343 344 344 344 344 344 344 345 345 346 346 345 344 344 344 344 343 344 344 344 344
311 310 309 312 315 315 315 314 315 315 316 317 317 316 316 315 314 313 315 319 318 318 320 321 322 322 322 323 323 323 324 324 323 324 324 324 324 325 325 324 325 327 329 329 329 331 332 332 332 332 333 333 333 335 334 333 333 332 332 331 331 333 336 339 342 343 343 344 344 344 344 344 345 345 345 345 345 344 344 344 344 345 344 343 344
316 315 314 314 317 318 318 317 317 316 316 317 317 317 317 316 315 314 314 316 318 317 317 319 320 320 320 321 321 321 322 322 322 323 324 324 324 325 325 324 325 326 327 329 330 331 331 332 331 331 331 332 332 332 332 332 331 330 331 330 330 331 332 336 338 339 341 342 343 344 344 344 344 345 345 345 345 344 344 343 344 345 345 344 343
318 318 317 316 317 318 318 319 319 318 317 316 316 316 316 316 316 316 316 316 317 317 317 316 318 319 319 319 320 319 320 321 321 322 323 323 324 324 324 324 325 326 326 328 329 330 330 331 331 330 330 330 331 330 331 332 330 329 329 330 329 330 330 331 334 336 337 338 340 341 344 345 344 344 345 346 346 346 345 345 344 344 344 344 343
319 319 319 318 318 318 318 319 319 319 318 317 314 314 316 316 316 317 317 317 317 317 317 316 316 317 318 319 319 319 319 320 320 321 321 322 322 323 323 324 324 324 325 326 328 328 329 329 329 330 329 328 328 328 328 329 329 327 328 328 328 329 329 329 330 332 333 336 338 339 341 344 345 345 344 345 346 346 346 345 344 343 343 344 343
320 319 319 319 318 318 318 319 319 319 319 318 316 314 315 316 316 317 317 317 317 317 317 317 317 317 316 317 317 317 317 318 319 320 320 321 321 322 322 323 323 324 324 324 325 326 327 327 328 328 327 327 327 327 326 326 326 326 326 326 326 327 327 328 328 329 330 332 336 338 339 341 344 345 344 345 346 346 346 345 344 343 344 345 344
318 317 318 319 318 318 319 319 319 319 319 319 318 315 316 316 315 317 317 316 317 317 317 317 316 315 314 315 315 314 314 315 316 318 319 320 320 321 322 322 322 323 323 323 324 325 326 326 327 327 326 326 327 326 326 326 325 325 324 325 325 325 325 326 326 327 328 329 333 337 338 338 341 344 345 345 345 346 347 345 344 344 344 345 345
317 317 318 319 319 319 319 318 318 317 316 317 316 314 315 315 315 317 317 315 316 317 316 316 315 315 314 313 314 313 311 312 314 316 318 319 320 321 321 321 322 323 323 322 322 324 325 325 326 327 325 325 325 325 325 326 326 324 324 324 324 324 324 324 325 325 325 327 330 334 337 337 338 341 344 345 345 345 346 346 345 344 343 343 344
319 319 319 319 320 320 319 318 318 317 315 314 313 314 315 314 313 315 315 315 316 316 316 316 315 315 314 313 313 311 310 312 312 313 317 319 319 320 321 321 322 323 323 322 322 324 325 325 325 325 324 324 324 324 325 325 325 323 323 323 323 323 323 323 324 324 323 325 327 331 335 336 336 338 341 345 346 346 346 346 345 344 343 343 343
319 319 319 319 319 319 319 318 317 316 315 314 312 314 316 316 314 313 313 314 317 316 316 316 315 315 315 313 312 310 311 313 313 312 316 318 318 319 320 320 321 322 323 323 323 324 324 324 324 324 323 323 323 323 323 324 324 321 319 319 320 320 321 321 322 323 323 322 324 328 332 334 336 336 338 342 345 346 347 347 346 344 343 343 343
318 319 320 319 319 319 319 318 318 317 316 315 313 314 315 315 315 314 313 316 317 317 317 316 316 316 316 314 311 309 312 315 314 314 316 318 318 319 319 320 322 322 322 323 324 324 324 324 324 323 323 323 322 322 323 322 322 320 318 319 319 317 317 317 318 321 322 321 321 324 329 332 334 336 336 338 342 345 346 346 346 345 343 343 344
318 319 320 320 320 320 319 318 318 317 317 317 316 314 314 314 314 314 315 317 317 317 317 317 317 317 316 315 311 309 313 316 315 315 317 317 318 318 318 320 321 321 321 322 323 323 323 323 323 322 322 322 322 322 322 321 322 320 319 321 322 318 316 315 315 317 319 321 320 320 325 330 332 335 335 336 339 342 345 346 346 346 344 343 343
317 317 318 319 320 319 319 318 318 317 317 318 318 317 316 316 315 315 316 317 317 318 318 318 318 317 317 316 312 310 313 316 316 315 316 317 318 317 318 318 319 319 319 319 320 320 320 320 320 320 321 321 321 321 321 321 321 320 319 321 323 321 319 317 317 318 317 318 319 318 320 326 330 333 335 335 336 340 343 346 347 346 345 343 343
317 318 318 319 320 319 318 317 317 317 317 318 318 318 318 317 316 315 316 317 317 317 318 318 318 317 317 316 313 311 312 315 316 316 317 317 317 317 317 317 317 317 317 317 318 318 318 318 318 318 318 319 319 320 320 320 320 320 320 322 322 322 322 319 317 318 316 314 317 317 317 322 328 331 334 335 335 337 341 344 346 346 344 343 343
319 320 320 319 320 319 317 317 317 316 316 317 318 318 319 318 318 317 317 317 317 317 317 317 317 318 317 317 315 312 312 315 317 317 317 317 317 317 317 316 316 316 316 316 316 317 317 317 317 316 317 318 319 319 319 319 320 320 321 322 322 323 324 320 316 316 315 312 314 315 314 319 326 330 333 334 334 336 339 342 345 345 345 344 344
320 320 319 319 320 320 320 319 318 315 316 318 318 318 318 318 318 318 318 318 317 317 317 317 317 318 318 316 315 312 311 314 317 317 317 316 315 316 317 316 316 316 316 316 316 316 316 316 316 316 317 317 318 318 318 318 319 320 321 321 322 323 324 322 320 320 319 315 314 314 315 320 327 330 332 334 334 335 337 341 344 345 345 346 344
320 320 320 320 321 321 321 321 320 318 318 318 319 319 319 318 318 319 318 318 318 317 317 317 317 318 317 316 315 313 310 313 316 316 317 318 317 316 317 317 316 315 315 315 315 315 315 316 316 316 316 316 317 317 317 318 319 319 320 321 322 323 323 323 323 324 324 323 321 319 321 325 329 331 333 334 334 334 336 339 343 344 345 346 345
320 320 321 321 321 321 321 321 321 320 320 319 319 319 319 319 319 318 318 318 318 317 317 317 317 317 317 316 314 313 309 310 314 316 317 319 319 317 318 318 316 315 315 315 315 315 315 315 315 316 316 315 316 316 316 317 319 319 319 320 322 323 323 323 323 324 325 326 325 324 327 329 330 333 334 335 334 334 335 337 341 343 343 344 344
320 320 320 320 320 321 321 321 321 320 320 320 320 320 320 320 319 319 319 318 318 318 317 318 318 317 317 316 313 311 308 305 308 314 317 319 319 318 318 318 317 315 315 315 315 316 316 315 315 315 315 315 315 315 315 316 318 318 318 320 321 322 323 324 324 325 326 326 326 328 329 330 332 334 335 335 334 334 335 337 339 342 343 343 344
320 320 320 320 320 321 321 322 321 320 320 321 321 321 321 321 320 320 320 319 319 319 318 317 318 317 317 316 312 310 308 303 301 308 314 317 319 319 318 318 317 315 315 315 315 316 316 315 314 315 315 315 315 316 316 316 317 317 318 319 320 321 322 323 325 326 325 325 327 329 330 330 331 333 334 335 334 334 335 337 338 340 342 344 344
321 321 321 320 320 321 322 322 322 321 321 322 321 320 321 322 322 321 321 320 320 320 319 318 318 318 317 316 313 310 309 304 299 302 307 310 313 315 316 316 316 315 315 315 315 316 316 315 314 315 315 315 315 316 317 316 316 316 317 318 319 320 320 321 323 325 324 323 325 328 330 330 330 330 333 335 334 334 334 336 338 339 341 343 344
321 321 321 321 321 322 322 322 322 322 322 321 320 319 319 320 322 323 322 321 320 320 319 318 318 318 317 316 314 311 309 305 301 300 303 305 307 310 312 313 314 315 314 314 314 316 316 314 314 315 315 314 315 316 316 316 316 315 316 317 318 319 319 320 322 324 323 323 325 328 330 331 330 329 331 333 335 334 333 334 336 338 340 342 344
320 320 321 322 322 322 322 322 322 321 321 321 320 319 319 319 320 323 322 321 320 319 319 319 318 318 318 316 314 312 309 307 305 303 303 304 306 307 309 310 312 312 312 313 315 315 315 314 314 314 314 314 315 315 316 316 316 315 315 316 316 317 317 318 321 323 323 322 323 326 329 331 330 330 330 332 334 334 333 333 334 336 339 340 342
319 320 321 321 321 321 321 322 322 322 322 321 320 319 320 320 319 321 322 321 321 320 319 319 319 318 317 317 315 312 310 309 310 310 308 307 308 309 310 311 311 311 311 312 314 315 314 314 314 314 314 314 314 315 315 315 315 315 314 315 315 316 316 317 320 323 323 322 323 324 327 329 331 331 330 330 333 334 333 331 332 335 338 340 341
321 321 321 321 320 319 319 320 321 322 322 322 321 319 320 320 319 320 322 321 321 320 319 319 319 318 316 316 316 313 311 310 311 312 312 312 312 313 312 313 312 312 312 312 313 314 314 314 314 313 313 313 313 313 313 314 314 314 314 315 315 315 316 317 319 322 323 323 323 323 326 329 330 332 331 329 331 334 332 330 331 333 337 339 340
322 322 321 322 321 319 319 320 321 322 323 322 320 319 319 320 319 320 322 321 321 321 320 318 318 316 314 315 316 315 313 312 312 312 312 313 314 314 313 313 313 312 313 313 312 313 313 313 312 311 311 312 312 312 313 313 313 313 314 314 314 315 314 316 319 321 322 323 322 321 325 328 329 331 332 329 329 333 332 330 330 331 334 338 339
322 322 322 322 322 320 320 320 320 322 323 321 319 318 319 319 319 320 322 321 320 320 320 319 316 314 312 314 316 315 313 312 311 310 311 312 313 314 314 313 313 312 313 312 311 310 311 311 311 310 310 310 310 310 312 312 312 313 314 314 314 314 314 316 320 321 322 322 321 320 324 327 327 329 331 330 329 332 332 331 329 329 331 336 338
322 322 322 322 321 320 319 318 318 321 322 321 318 318 318 318 318 321 322 321 320 319 320 319 316 313 312 313 314 315 316 314 311 310 310 311 312 315 315 313 313 313 312 312 312 311 311 311 311 311 310 309 307 307 310 310 311 312 314 314 315 314 315 318 320 321 321 322 321 319 322 325 325 327 330 330 329 331 332 331 329 327 329 333 337
321 322 322 322 321 319 318 318 318 320 321 322 320 318 317 317 318 320 321 321 321 320 319 319 317 315 313 313 313 315 317 317 314 311 311 310 312 315 315 314 314 314 313 312 312 312 313 313 313 312 312 311 308 308 311 311 310 312 314 314 314 314 316 318 320 320 320 321 320 318 320 323 324 325 327 329 330 331 331 331 329 328 328 330 333
321 322 322 322 321 319 318 318 319 319 320 321 320 318 318 317 316 318 320 321 321 320 319 319 318 316 314 313 312 313 315 316 314 312 312 311 311 313 315 315 315 314 314 314 313 314 315 314 314 313 313 313 312 312 313 312 310 312 314 314 314 314 315 317 319 319 320 321 320 318 319 322 322 323 325 328 330 331 331 332 330 328 328 329 330
322 322 322 322 321 320 320 319 319 319 320 321 320 318 318 317 315 315 318 321 320 319 319 319 319 318 317 315 314 313 313 314 313 313 313 312 311 312 314 315 316 315 315 314 314 315 316 316 315 314 313 313 313 313 313 312 311 312 314 314 314 314 315 317 318 318 318 320 320 318 318 320 321 322 323 326 329 330 331 332 331 329 329 330 329
Wind_Speed
6 7 9 10 12 13 13 15 15 16 16 14 14 13 11 11 12 12 12 12 11 11 11 11 10 10 10 10 9 9 9 9 9 10 11 11 13 16 14 12 12 12 14 15 16 16 16 16 18 19 21 20 20 22 23 25 24 24 25 28 30 33 35 34 32 31 30 30 32 33 33 32 30 31 30 29 27 26 26 25 23 22 21 20 19
7 8 10 11 12 13 14 15 15 15 14 12 12 12 10 11 13 13 12 12 12 11 12 10 10 10 9 9 8 8 8 7 8 7 8 9 11 14 14 13 13 13 14 15 16 17 18 19 20 21 21 19 20 22 23 23 23 23 25 26 27 29 33 35 34 32 31 31 32 33 33 33 32 32 31 29 27 26 27 26 25 23 23 22 20
8 8 9 10 11 12 13 13 13 13 12 10 10 10 10 11 13 13 13 13 12 11 11 9 8 8 8 8 7 7 7 6 6 7 7 8 9 11 12 12 13 14 15 16 18 20 21 22 23 23 22 20 20 22 22 23 23 24 25 26 28 28 31 35 36 34 32 31 32 33 33 33 34 33 32 30 28 28 27 26 26 24 24 23 21
7 8 8 8 9 9 10 10 9 9 9 9 9 10 10 12 13 14 13 12 11 10 9 8 8 7 8 7 6 5 5 5 5 6 7 7 8 8 9 11 12 14 15 17 20 22 23 22 22 22 21 20 21 21 22 22 23 25 25 26 28 29 31 34 37 36 33 32 32 32 33 33 34 34 33 31 29 29 27 26 26 25 25 25 23
7 8 8 8 9 9 9 8 7 7 8 9 9 10 10 12 13 13 11 10 9 8 7 7 7 7 7 6 5 4 4 4 4 5 6 7 8 9 10 10 11 13 14 16 18 20 21 20 20 20 20 19 19 19 19 20 22 24 26 27 29 30 31 33 36 37 35 32 32 32 32 32 33 34 33 31 30 29 28 27 26 26 26 26 25
8 8 8 9 9 9 8 6 6 6 7 8 8 9 11 12 13 12 9 9 9 7 6 6 6 6 6 5 4 4 4 4 4 5 6 7 7 8 9 10 10 11 12 13 13 14 15 16 16 16 17 18 18 18 18 19 21 23 25 27 30 32 32 33 35 37 36 33 32 32 32 32 32 34 33 31 30 30 29 28 26 27 28 28 26
8 8 9 8 8 8 6 5 6 6 6 8 8 9 11 11 13 12 9 8 7 6 5 5 5 6 5 5 4 4 4 4 5 5 5 6 5 4 4 5 6 8 8 8 9 10 11 12 12 12 14 17 19 19 18 19 20 22 25 27 31 33 34 35 36 38 37 34 33 33 32 32 32 32 32 31 31 31 30 28 27 27 28 28 27
10 10 10 8 7 6 5 5 6 5 6 9 9 9 11 10 11 12 8 6 7 5 5 5 5 6 5 5 5 5 5 5 5 5 6 6 6 6 7 6 7 8 8 7 8 9 10 11 12 11 12 14 17 18 17 18 20 22 24 27 31 33 33 35 36 38 37 34 33 33 32 32 32 31 31 30 30 30 30 29 28 27 27 27 27
12 12 11 9 7 5 5 5 4 5 6 8 8 9 10 9 10 10 7 5 7 5 4 4 4 5 6 5 6 7 7 6 6 5 7 8 8 8 8 8 8 8 8 8 8 9 10 10 12 12 11 12 14 16 15 16 19 21 23 23 26 27 28 32 35 37 36 34 32 32 31 32 31 31 30 30 29 30 30 30 29 28 26 27 28
13 13 11 9 7 5 4 4 4 5 6 7 8 9 9 9 9 8 6 5 5 5 4 4 3 3 5 5 6 7 6 7 7 6 7 7 7 8 8 8 9 9 8 8 9 11 12 12 12 13 12 13 13 14 13 13 16 19 19 17 17 19 23 29 33 35 34 32 31 31 31 31 31 31 31 31 30 30 31 31 30 29 28 27 28
14 13 11 8 6 5 4 4 4 5 6 7 8 9 9 8 8 7 6 4 5 5 3 3 3 2 3 4 5 5 6 7 7 7 7 8 8 8 9 9 9 10 10 10 11 11 13 14 14 13 13 15 15 15 14 12 14 16 14 11 10 13 20 27 30 31 31 29 30 31 31 31 30 30 31 31 30 31 32 32 31 30 29 28 28
14 13 10 7 4 4 4 4 5 6 7 7 8 9 8 7 7 6 6 4 5 5 2 2 3 4 3 3 3 4 5 6 7 7 7 9 8 8 9 9 9 10 11 11 12 12 13 14 15 15 14 15 16 15 15 14 13 14 11 8 6 9 17 24 27 27 27 28 28 29 30 30 29 30 30 30 30 31 32 32 31 31 30 29 29
14 12 9 6 4 3 4 4 5 7 8 8 9 9 7 6 6 6 7 5 4 4 1 1 3 4 3 3 1 3 4 6 7 7 7 7 8 8 8 9 9 9 11 11 12 13 13 14 15 15 15 14 15 15 15 14 14 14 10 6 5 10 16 21 22 21 22 24 26 28 28 28 27 27 28 30 30 30 31 31 31 32 32 31 29
14 11 8 5 4 4 4 5 5 6 7 8 10 10 8 6 6 6 6 7 5 3 1 2 3 4 3 4 3 2 2 4 5 7 8 7 7 8 8 9 9 10 10 10 11 12 13 14 15 15 15 14 15 15 16 16 15 14 10 7 6 10 15 19 20 19 20 22 24 26 27 26 26 26 26 27 29 30 30 30 31 33 33 33 31
12 9 7 5 4 4 5 6 6 6 7 7 9 10 10 9 8 7 6 6 7 5 1 2 3 3 3 4 3 4 4 2 5 6 6 7 8 9 9 8 9 10 10 9 10 11 12 13 14 14 14 14 15 16 17 17 15 14 11 9 7 8 13 17 20 20 21 23 25 26 26 27 26 26 25 25 27 29 30 30 31 33 34 34 32
10 7 5 6 4 4 4 6 7 7 7 8 8 9 10 10 9 9 8 6 7 8 6 3 2 2 2 3 3 3 2 5 9 6 5 7 8 9 9 9 8 9 9 10 11 11 11 11 12 13 13 13 15 15 16 17 16 14 13 12 9 7 11 16 19 22 23 24 26 26 26 27 27 27 26 25 26 28 29 30 31 32 34 35 34
9 6 5 6 6 6 6 6 8 9 8 9 9 9 10 10 10 9 8 8 7 7 9 8 5 3 3 2 2 2 4 8 9 6 5 6 7 8 9 10 9 8 8 10 10 11 11 11 11 12 13 13 14 14 15 16 16 15 15 15 13 8 7 10 16 20 23 24 26 26 26 26 28 28 27 26 26 27 28 29 31 32 33 34 34
9 6 5 6 7 8 9 9 9 11 10 10 10 9 10 10 10 9 8 8 8 7 7 9 9 8 7 6 4 3 5 8 7 7 6 5 6 8 8 9 8 8 7 8 9 9 10 11 12 11 12 12 12 14 16 16 16 17 18 17 16 13 10 7 11 16 19 23 25 27 27 27 27 27 27 28 28 29 29 29 31 32 33 34 34
8 7 7 8 9 9 10 11 10 11 11 11 10 9 9 11 11 11 10 9 9 8 8 7 8 9 8 8 7 6 6 7 7 8 8 6 6 8 8 8 6 6 6 6 7 8 8 10 11 11 11 11 11 13 15 16 16 17 19 19 17 16 14 9 6 11 15 20 24 26 28 28 28 28 28 28 29 30 30 29 31 32 33 34 34
6 7 8 9 10 10 11 12 11 12 12 11 11 11 11 13 13 12 12 11 10 9 9 8 7 8 7 7 6 6 6 7 8 7 8 8 7 7 9 8 5 5 6 6 6 7 8 9 10 11 11 11 11 12 14 15 16 16 17 18 18 17 16 13 7 5 10 15 20 24 27 29 30 30 29 29 30 31 30 30 31 32 33 34 34
6 7 9 10 11 11 11 12 12 12 12 12 13 13 14 15 14 13 13 12 12 11 10 9 8 8 7 7 6 6 5 5 7 7 7 8 8 9 10 9 5 4 7 6 6 7 8 8 9 10 10 10 11 12 12 14 15 15 16 18 18 17 15 13 9 4 5 9 15 19 23 27 31 32 31 31 32 32 31 31 31 32 33 33 34
6 8 10 11 11 10 11 12 12 13 13 12 12 13 14 15 15 15 14 12 11 11 10 9 8 8 8 7 7 7 7 7 8 8 7 8 9 9 10 9 7 5 6 6 5 6 7 7 9 10 10 10 11 12 11 12 14 14 15 16 16 16 14 12 9 7 7 7 10 15 19 23 28 32 34 33 33 33 33 33 32 32 33 34 34
6 7 8 9 9 9 9 10 11 12 12 11 11 11 11 13 14 15 15 14 12 12 11 10 8 9 9 8 8 8 8 8 9 9 9 9 9 10 10 9 7 5 6 6 5 5 6 7 9 9 10 10 10 12 11 11 13 14 14 15 15 14 13 12 10 9 9 9 9 10 16 21 24 28 33 34 34 35 35 34 33 33 33 34 34
5 6 6 7 8 8 8 8 9 9 10 11 11 11 11 11 12 13 14 14 13 12 12 11 10 9 9 8 8 8 8 8 8 9 9 9 9 9 10 9 8 5 5 6 6 6 6 7 8 9 10 10 10 11 11 11 12 14 14 15 15 14 13 12 11 11 11 12 12 11 11 17 21 24 29 34 36 36 35 35 34 33 33 33 33
5 5 5 6 7 7 7 7 7 8 9 10 12 13 11 11 11 12 13 13 12 12 12 12 12 11 9 8 8 9 9 8 8 8 8 9 9 9 9 9 8 6 6 6 6 7 8 8 7 8 10 10 11 11 11 11 13 14 15 15 15 14 13 13 12 12 13 13 13 13 12 11 18 22 26 31 35 36 36 36 35 34 33 33 33
5 5 6 6 6 7 7 7 7 7 8 8 10 12 11 10 10 11 11 12 11 11 11 12 13 12 11 9 9 9 9 9 8 8 8 8 8 9 10 9 8 6 6 5 5 6 8 9 8 8 9 10 12 12 13 13 14 14 15 15 16 15 14 14 14 14 14 14 13 13 15 10 10 18 22 26 31 35 37 37 36 35 34 33 33
6 7 8 7 6 7 7 6 7 7 7 7 7 10 10 10 10 10 10 10 10 10 10 11 12 12 12 11 9 9 9 9 8 8 8 8 8 8 9 10 9 8 6 6 6 6 7 10 11 9 9 10 11 13 14 14 14 15 15 16 17 16 16 15 15 15 15 15 14 13 14 12 7 13 19 21 25 32 36 36 36 35 34 32 33
7 7 7 6 5 6 6 7 8 8 10 9 8 9 10 9 10 10 9 9 10 10 10 11 11 11 12 12 10 9 10 9 8 7 7 8 8 7 8 9 9 9 8 7 7 7 8 9 11 10 10 10 10 12 13 13 15 17 17 18 18 18 18 17 16 16 16 16 14 13 13 13 10 8 14 18 21 28 34 35 35 34 33 33 33
6 6 7 6 5 6 6 7 8 9 11 12 11 11 11 10 11 10 9 9 10 10 10 11 12 12 13 13 11 10 10 9 8 7 7 7 8 7 8 8 8 9 10 9 8 8 9 10 10 11 13 12 11 12 13 14 17 19 19 20 20 20 19 18 18 17 17 16 15 14 14 14 13 9 9 16 21 26 31 34 34 33 34 34 33
8 7 6 6 6 6 6 7 8 10 12 13 14 13 10 10 11 11 12 12 10 10 11 11 12 13 14 14 13 11 10 9 8 7 7 7 8 8 8 7 7 8 9 10 9 9 10 11 10 11 13 13 11 12 13 15 19 22 21 21 21 22 21 20 19 18 17 17 16 15 14 14 14 13 10 11 19 25 29 32 33 33 34 35 34
9 8 6 4 5 6 6 7 8 9 11 13 14 13 10 9 9 10 12 12 11 11 11 11 12 14 14 15 14 12 11 10 8 7 7 7 7 7 7 7 7 7 7 9 11 11 11 12 12 11 13 14 13 13 14 15 19 22 21 20 21 22 22 21 21 19 17 16 16 15 14 14 15 14 13 10 14 23 27 30 31 32 34 35 35
8 7 6 5 5 5 5 6 6 7 8 9 12 12 11 10 10 10 12 12 11 11 12 12 12 13 15 16 16 13 12 11 9 7 7 7 7 7 7 7 7 8 8 9 11 12 11 11 12 12 13 15 14 13 15 16 18 19 19 18 19 20 20 19 19 20 19 16 16 16 14 14 15 15 15 12 11 18 27 31 33 33 34 35 35
9 8 7 7 6 5 5 6 6 7 8 8 8 9 9 9 9 9 11 11 10 11 12 12 12 14 15 16 17 15 12 11 9 8 7 7 7 7 8 8 8 8 9 10 11 13 12 12 12 12 13 15 14 14 15 17 17 19 19 17 18 19 19 18 17 18 19 17 15 15 15 14 15 15 15 15 11 14 24 30 33 33 34 34 34
11 9 7 7 6 6 6 7 6 6 8 8 7 6 7 7 7 7 8 9 9 10 11 12 13 14 15 15 17 15 12 10 10 9 8 7 7 7 8 8 8 9 10 11 11 13 14 14 13 13 13 14 14 14 16 17 18 19 18 17 18 18 19 18 16 16 17 17 15 15 15 15 15 16 15 15 13 11 18 26 30 32 32 33 34
10 8 7 8 8 8 8 8 8 7 8 7 6 6 6 6 6 6 7 8 8 9 10 11 12 13 15 15 16 16 13 10 10 9 9 8 7 7 8 8 8 9 10 11 11 13 15 15 14 14 13 13 14 14 15 16 17 17 17 17 18 17 18 18 15 14 16 15 14 14 14 14 15 16 16 15 15 11 13 21 28 31 32 33 34
9 8 9 9 8 8 8 7 8 8 8 7 5 5 5 5 5 6 7 8 8 8 9 10 11 12 14 15 16 16 13 10 9 9 10 9 8 7 8 8 8 10 10 11 12 13 15 15 14 14 13 13 14 14 15 16 16 16 16 17 17 17 18 17 14 12 14 15 13 13 13 13 14 15 16 16 15 12 11 17 25 30 32 34 35
8 8 7 7 6 5 5 5 5 7 7 7 5 5 4 5 5 6 7 8 9 9 9 9 10 11 13 14 15 16 14 10 8 9 9 8 8 7 7 7 8 10 12 12 13 13 14 14 14 14 13 13 14 14 15 16 16 16 17 17 16 16 17 16 14 12 14 14 13 11 11 13 14 15 16 16 16 14 10 13 21 26 27 30 34
7 5 4 4 4 3 4 4 3 5 5 5 5 6 5 5 6 7 7 8 9 9 9 9 9 10 11 12 14 15 14 10 7 7 8 7 7 7 7 7 8 10 12 12 12 13 13 13 13 14 14 14 14 14 15 16 16 16 18 17 16 17 16 16 14 12 13 14 12 10 11 12 13 15 15 15 16 16 12 10 16 21 23 25 29
6 4 3 3 2 2 2 3 2 3 4 4 5 6 5 6 6 6 6 7 8 8 9 9 8 9 10 11 13 16 17 12 6 6 7 6 6 7 6 6 8 10 11 12 12 13 13 13 13 13 14 13 14 14 15 16 15 16 18 18 18 19 18 16 14 11 12 13 12 10 11 11 13 14 14 13 16 16 13 10 11 18 24 26 26
5 5 4 3 2 2 1 1 0 3 4 4 4 4 4 5 5 5 5 7 7 7 9 9 8 9 9 9 12 17 18 13 7 5 4 3 5 7 7 6 8 10 11 12 12 13 13 13 13 13 14 13 14 15 15 16 17 17 18 18 18 19 19 18 15 12 12 13 11 9 10 10 11 13 14 13 14 14 12 10 10 14 22 27 29
6 5 5 4 3 3 2 1 1 3 4 3 3 3 3 4 5 5 6 7 7 7 8 9 9 8 8 8 12 17 18 14 10 6 3 2 4 6 7 8 9 10 11 11 11 12 13 13 13 13 14 13 14 16 16 17 18 17 18 18 17 18 20 19 15 13 13 13 11 10 10 11 12 13 14 14 13 13 13 10 8 11 19 27 31
6 5 5 5 4 3 2 1 2 3 2 3 6 5 4 4 5 5 6 7 8 8 8 9 9 7 7 8 12 17 19 16 11 8 5 4 5 6 7 9 10 10 11 11 10 11 12 12 13 13 14 14 14 15 16 17 17 17 18 18 17 19 21 19 15 14 14 12 11 11 10 12 13 13 14 15 14 15 15 13 10 8 14 22 30
7 6 6 5 5 4 3 1 1 1 2 5 7 6 6 6 6 5 6 7 8 8 8 8 8 6 7 8 10 14 18 16 11 9 8 7 7 8 9 9 9 9 9 9 9 10 11 12 12 13 14 14 15 15 16 17 17 17 17 17 17 18 21 20 17 16 15 14 14 13 10 11 13 13 14 15 14 15 16 15 13 9 9 15 24
6 6 6 6 5 5 4 3 2 0 3 8 9 7 7 7 7 6 6 6 6 7 7 7 7 6 6 6 6 8 13 14 11 9 9 10 10 11 12 10 9 9 9 9 9 9 11 12 12 13 14 15 15 15 16 17 18 18 17 16 17 18 19 20 19 17 14 14 17 18 14 11 12 13 14 15 13 14 16 17 16 10 7 11 16
7 6 6 5 5 5 4 4 3 1 3 9 9 7 7 8 7 6 6 6 6 6 7 6 6 6 6 6 4 5 9 12 11 8 8 9 10 12 13 12 10 10 10 9 8 8 10 11 12 13 14 15 16 16 16 17 18 17 17 17 17 18 19 19 19 16 12 13 17 20 16 11 11 11 13 14 13 13 16 17 18 13 6 9 12
7 6 6 6 5 5 5 4 3 2 4 8 8 7 8 7 7 7 6 6 6 6 7 6 6 7 8 6 3 4 7 8 8 7 7 7 8 10 11 12 11 11 9 8 8 9 9 10 12 14 14 14 14 15 15 16 16 16 17 17 18 18 18 18 17 14 12 12 16 18 16 12 11 11 12 14 14 13 15 16 17 16 10 5 10
7 7 7 6 6 6 5 5 4 3 5 7 7 8 8 7 8 7 6 6 5 5 6 6 6 8 9 7 3 4 6 6 6 7 8 7 7 8 10 11 11 10 9 9 10 11 9 9 11 13 13 13 13 13 14 14 15 15 16 16 16 16 17 17 15 13 11 11 15 17 16 13 13 11 11 14 14 13 13 16 16 16 14 6 7
8 8 7 6 6 6 5 5 5 4 6 7 7 8 9 8 8 7 6 7 6 4 5 6 6 8 9 8 6 5 6 7 8 8 8 8 7 7 8 10 10 10 10 12 15 16 14 13 14 15 16 15 13 12 12 14 15 15 15 15 14 13 14 15 14 12 11 11 14 16 15 14 14 13 11 12 14 13 12 15 18 17 15 11 5
8 8 8 7 7 7 6 6 6 5 6 7 8 9 9 8 7 7 7 6 5 4 5 5 6 6 7 8 7 5 5 7 8 8 7 7 7 6 8 9 9 10 10 12 15 17 16 17 17 19 20 21 17 14 13 14 15 14 14 14 14 13 12 13 14 14 13 12 13 15 14 13 15 15 13 12 13 14 13 14 18 19 16 13 8
9 9 8 7 7 7 7 7 6 6 7 7 8 9 9 8 6 6 6 5 5 5 5 5 6 6 6 7 7 7 5 6 8 8 7 7 7 6 7 8 9 10 10 10 11 12 14 14 16 16 18 20 19 14 12 14 14 12 12 12 13 12 11 12 13 15 13 11 13 15 14 13 15 16 16 14 12 12 13 14 17 19 16 14 12
10 9 7 7 7 7 8 7 6 7 7 8 8 9 9 8 5 5 6 5 5 5 5 6 6 7 7 8 8 8 7 7 9 9 8 8 7 7 7 8 8 10 10 10 11 12 12 11 13 14 14 15 16 13 11 12 12 11 10 11 12 12 12 11 12 14 13 12 13 15 14 14 15 16 17 17 13 11 12 13 15 18 18 14 13
Wind_Direction
346 336 322 314 309 307 306 304 306 307 309 314 316 321 328 325 325 333 334 332 332 325 320 323 319 313 309 308 304 296 292 288 284 280 278 278 278 278 274 273 280 283 279 275 275 277 277 278 281 281 276 271 269 268 265 264 262 259 257 254 249 245 242 241 239 236 233 230 226 224 224 223 221 222 220 219 218 217 218 218 216 212 210 207 205
335 325 315 312 310 309 308 307 308 308 311 316 318 326 331 328 333 341 338 332 331 323 322 325 319 318 315 311 311 305 298 294 292 290 284 276 270 276 279 274 273 280 281 279 280 281 283 284 287 286 281 276 273 271 266 263 262 259 257 255 251 246 242 240 238 234 231 230 228 226 226 224 221 222 221 218 218 218 219 219 216 213 212 210 205
329 324 320 318 314 312 310 309 309 311 315 319 323 334 339 338 341 347 344 336 333 326 325 327 322 323 315 310 309 299 295 295 293 291 285 277 272 279 285 279 272 273 276 279 282 283 284 284 286 286 284 280 275 272 269 264 261 257 254 251 249 245 240 238 235 232 229 227 227 227 226 223 220 221 220 216 216 218 220 219 216 214 214 213 208
336 335 332 328 322 318 316 314 314 315 319 327 337 348 348 343 343 348 347 341 338 331 330 332 324 321 320 321 317 306 301 292 289 288 284 282 281 281 282 285 283 280 279 279 280 282 284 284 283 282 281 278 274 271 268 264 261 258 255 250 247 243 239 235 231 230 229 224 224 225 223 221 218 219 220 217 216 217 219 220 217 215 215 214 211
348 349 345 340 336 331 330 330 327 329 335 344 354 354 348 344 344 348 347 344 343 334 339 339 325 331 338 341 343 337 328 305 300 295 289 287 283 283 281 281 284 285 285 284 284 284 283 283 281 280 279 277 276 273 269 265 263 260 256 252 248 244 240 235 229 226 225 222 222 222 219 218 217 218 220 217 215 217 219 220 218 216 215 215 213
358 359 356 349 344 341 345 342 341 355 354 355 2 351 347 346 344 354 356 348 345 338 345 341 332 348 349 349 3 357 352 349 335 317 307 301 292 287 280 277 278 281 287 292 295 291 287 285 282 282 281 280 279 277 275 270 266 264 261 256 252 248 240 234 226 221 221 220 220 220 217 217 216 217 219 218 216 217 218 219 219 217 216 215 213
9 8 5 360 355 352 357 353 359 19 358 351 2 349 346 346 343 359 8 351 349 346 342 336 342 359 356 354 10 7 2 6 356 347 334 317 312 320 305 301 303 297 299 309 312 307 303 299 294 291 289 287 283 279 277 275 273 272 269 261 255 250 242 233 224 218 217 217 217 217 216 216 216 216 217 216 216 218 219 219 219 219 217 216 214
13 11 10 8 8 6 5 7 15 18 350 349 359 348 345 345 346 360 13 4 358 351 332 335 350 360 2 4 11 13 13 20 19 13 3 352 1 13 7 1 345 326 323 327 326 321 319 316 314 311 303 296 289 284 279 278 283 283 278 268 258 253 244 230 219 214 214 214 214 214 214 216 215 216 217 217 217 219 220 219 219 219 218 219 216
13 10 11 11 19 24 14 19 23 359 348 354 353 347 348 347 349 358 13 15 360 348 330 334 354 3 6 13 25 25 18 23 27 21 18 18 22 22 15 7 352 341 338 336 336 334 334 332 329 330 325 313 302 297 288 284 293 295 290 278 262 253 239 221 214 211 210 211 211 211 213 215 215 216 218 218 219 220 221 220 219 219 219 219 218
11 9 11 13 21 31 21 19 14 348 350 359 353 347 349 347 349 357 12 18 1 350 328 319 350 13 12 17 32 34 23 23 24 24 29 28 22 20 22 18 4 359 356 351 351 350 348 347 343 342 339 332 324 317 308 299 304 307 303 288 261 244 223 209 207 207 208 208 207 209 212 214 216 216 218 219 218 220 222 221 219 219 219 219 218
9 10 14 21 25 23 12 7 1 350 354 7 1 349 349 346 346 2 19 11 359 357 324 299 335 359 19 25 33 35 29 27 23 22 25 23 21 19 21 22 12 7 9 5 360 355 354 353 350 349 345 343 343 339 332 324 318 318 315 298 261 230 209 200 198 200 205 207 205 208 213 214 216 217 219 220 218 219 222 222 220 218 219 219 218
8 12 17 25 34 18 4 7 2 354 359 8 2 354 357 354 349 13 34 14 356 357 328 285 318 325 355 21 33 30 26 27 22 19 22 19 17 16 15 16 11 6 8 7 1 358 357 354 352 353 352 350 353 350 344 340 332 329 326 306 263 214 201 197 196 199 203 205 205 209 214 217 218 219 221 223 221 220 221 222 221 221 220 220 218
8 14 20 27 33 12 1 12 7 359 4 6 5 11 22 17 11 27 36 28 8 345 324 26 320 301 317 324 349 30 22 24 13 1 9 12 7 5 2 0 1 4 6 4 360 359 358 355 354 356 357 356 358 357 350 344 339 337 331 304 247 203 199 197 198 204 207 208 210 211 214 218 220 222 223 224 224 222 222 222 222 222 223 222 219
7 16 25 31 36 19 4 8 8 6 11 11 15 31 45 38 38 46 34 27 26 357 163 85 355 300 280 290 283 277 313 19 5 345 354 0 358 353 346 345 348 357 7 5 359 359 360 357 356 358 3 3 3 5 1 354 349 346 336 305 252 206 202 202 203 207 212 215 216 217 217 217 219 223 224 224 226 225 223 222 223 223 223 223 221
11 22 24 24 34 29 7 358 8 21 28 33 28 32 45 45 47 66 57 32 28 25 63 105 13 332 281 267 285 285 266 348 350 332 343 350 351 345 335 334 340 349 359 1 360 1 360 358 357 359 6 10 10 10 8 3 358 357 354 332 291 231 211 209 209 208 211 217 220 221 222 220 221 222 224 225 227 228 226 224 224 223 223 223 222
22 32 19 12 21 27 17 4 21 42 43 50 46 31 40 45 45 62 74 56 35 31 35 45 77 62 337 296 295 297 289 343 336 315 320 336 342 344 332 325 333 342 348 352 355 358 358 356 357 359 7 13 15 14 10 6 5 6 8 1 338 278 233 219 215 215 216 220 222 223 225 224 225 224 224 227 228 228 228 226 225 224 223 222 222
25 39 19 11 22 34 43 37 45 62 60 57 53 35 35 48 49 51 62 64 48 34 33 35 49 79 60 20 326 322 342 340 331 313 319 329 331 341 332 321 327 333 341 347 346 350 353 354 359 1 7 14 16 17 13 13 16 13 9 8 3 338 282 242 227 225 226 227 227 228 229 229 228 228 227 228 228 226 226 226 226 224 223 222 221
17 32 33 32 46 56 65 65 62 67 64 56 50 34 31 47 59 54 53 65 62 46 36 32 31 38 54 55 43 30 358 346 340 328 328 332 333 343 340 330 333 331 334 340 339 345 346 350 358 360 4 10 12 17 15 17 23 19 14 11 9 4 345 294 245 236 235 235 234 234 236 236 233 231 230 230 230 227 224 225 225 223 222 221 221
15 31 47 54 62 69 75 77 73 68 62 55 53 44 39 48 60 62 60 66 68 58 46 35 30 30 34 32 27 32 23 10 3 343 336 341 342 352 351 346 346 334 330 335 338 346 344 348 355 355 0 3 4 16 17 19 24 19 17 17 13 9 2 348 282 249 243 240 238 237 238 239 236 233 231 231 231 229 226 225 224 222 222 222 221
36 49 58 65 70 75 81 80 74 68 64 60 59 57 55 57 59 60 60 59 60 59 51 43 37 33 31 28 23 23 23 19 11 357 345 341 344 357 356 354 358 341 338 340 342 349 347 349 353 353 359 358 360 13 17 19 23 18 17 18 17 15 11 13 2 272 251 243 239 239 239 238 237 234 233 232 230 229 228 227 225 222 221 222 222
57 68 71 75 72 70 74 75 72 70 67 61 59 57 57 60 61 63 62 54 50 54 50 42 38 34 30 32 29 21 17 14 10 6 357 346 345 352 356 360 3 351 345 336 336 347 346 348 352 354 360 357 359 10 13 15 16 13 15 17 18 19 18 21 24 352 286 259 247 243 241 238 236 234 233 232 231 231 230 229 227 224 222 223 223
63 66 73 79 75 68 66 67 68 70 66 59 54 52 52 55 56 60 63 57 49 50 48 40 36 33 29 26 24 19 13 7 4 4 0 352 346 345 354 1 354 351 348 331 330 345 344 347 348 352 0 358 358 5 9 10 8 8 13 14 15 17 18 19 17 7 347 308 268 251 242 238 237 235 233 231 231 231 230 228 226 225 225 224 222
77 66 70 82 83 75 67 61 59 61 65 64 61 57 55 54 52 51 55 55 49 47 45 42 37 30 28 26 21 18 14 7 2 1 358 354 349 346 353 358 347 345 345 330 332 345 343 347 347 349 358 359 357 360 5 7 2 3 7 10 12 13 11 10 7 360 351 339 319 283 253 241 238 236 233 231 231 230 229 227 225 224 226 225 222
91 80 75 80 83 76 66 59 54 56 61 63 64 65 59 54 52 47 47 48 46 44 42 42 42 34 27 26 22 20 19 12 2 1 359 354 351 350 351 353 347 346 348 338 339 344 343 348 349 348 353 357 356 355 1 2 356 358 2 3 7 9 7 5 3 0 354 347 345 333 289 252 240 236 232 231 232 230 228 226 224 222 223 225 222
99 93 83 76 76 73 67 63 61 60 60 56 57 62 60 52 50 46 43 43 43 43 39 37 41 38 30 28 23 18 19 16 8 7 5 359 357 355 352 349 343 342 351 349 347 349 346 344 350 354 353 356 358 355 357 357 353 355 358 358 359 1 2 1 1 2 1 358 354 347 329 277 243 237 234 231 231 230 228 226 224 221 219 221 221
127 122 110 95 84 77 68 63 61 56 57 52 46 52 56 52 50 46 42 41 42 44 40 36 36 33 30 28 22 15 13 13 11 9 10 8 4 358 354 351 344 343 350 350 350 353 348 337 338 356 357 356 359 357 357 357 352 351 352 352 352 352 354 356 358 0 1 3 5 356 347 329 256 239 237 233 230 228 227 225 223 220 217 217 219
140 129 116 102 90 80 69 65 65 59 62 61 45 48 52 49 50 49 40 39 43 43 40 36 33 29 25 21 17 11 6 6 8 9 12 12 8 2 0 357 351 349 352 351 350 354 351 335 331 347 356 354 354 350 354 354 345 345 347 345 344 344 345 347 350 355 356 358 5 4 357 349 301 249 240 238 233 228 227 226 222 220 217 216 218
126 116 109 103 90 78 70 69 68 63 64 65 57 56 55 49 53 52 41 40 43 41 39 34 30 26 20 15 13 5 2 3 2 5 12 13 9 6 5 2 352 347 347 349 349 348 353 345 336 342 349 353 348 340 347 344 328 334 341 336 335 334 336 340 341 345 350 350 355 360 1 359 344 283 247 241 235 228 227 226 223 220 217 217 219
121 117 113 112 105 94 86 76 72 67 62 60 60 62 60 53 53 53 50 50 45 41 40 34 28 24 17 14 12 4 3 8 3 4 12 13 12 6 4 3 351 344 342 342 340 341 348 347 341 340 341 351 348 332 340 336 319 325 332 325 325 324 323 328 331 335 341 344 347 350 352 358 359 343 276 244 234 229 227 225 222 220 218 219 219
133 124 115 110 105 103 97 82 73 68 62 59 61 66 65 55 48 49 55 55 47 38 36 33 26 23 18 16 14 11 14 17 8 8 12 10 12 6 3 3 354 347 342 333 328 332 339 339 339 339 335 342 345 328 333 336 322 325 329 323 320 317 314 316 319 324 331 336 340 343 345 349 354 355 331 265 237 229 224 222 221 219 219 220 220
132 123 119 119 108 99 92 80 70 65 60 57 61 67 73 68 57 52 53 52 47 41 36 30 24 21 20 19 17 17 24 23 14 14 14 11 14 8 1 3 357 349 343 330 322 325 333 334 334 337 331 334 340 328 326 332 327 329 334 331 324 318 315 314 312 313 318 327 334 336 340 344 345 349 347 311 253 233 224 221 222 221 219 219 221
130 127 133 140 125 108 100 92 85 79 73 62 60 65 71 76 69 56 54 52 47 42 37 30 24 19 19 20 19 20 26 23 16 16 12 11 16 10 3 5 360 351 348 339 327 325 330 331 328 331 329 330 335 331 327 330 330 332 337 337 331 326 324 320 316 311 309 317 326 329 334 339 338 342 345 333 285 244 228 221 218 219 219 217 219
127 124 126 127 121 112 108 104 94 86 82 72 59 56 59 64 60 47 45 46 41 36 32 27 23 20 19 19 18 20 25 21 16 17 13 12 16 11 5 4 2 358 353 345 334 327 328 330 328 327 326 328 332 332 331 332 332 335 339 338 334 332 331 328 325 316 308 309 317 322 329 333 332 335 338 336 313 260 238 226 216 215 217 215 216
118 115 116 116 116 113 107 102 96 82 77 77 71 64 61 59 58 45 35 36 34 30 26 22 19 18 18 18 16 17 23 20 15 16 13 10 12 8 5 0 357 356 353 346 339 331 328 329 329 328 327 329 332 332 334 336 335 337 339 338 334 334 333 330 326 317 308 310 315 318 324 331 329 328 333 336 327 287 249 233 220 216 216 213 214
117 119 118 117 116 109 98 93 90 80 74 75 68 62 60 54 51 43 30 28 26 23 22 17 14 14 15 16 14 14 18 18 15 17 14 10 10 6 2 359 355 355 352 348 342 336 333 332 331 330 331 332 333 334 337 338 339 339 338 336 336 337 333 328 324 316 310 311 314 316 322 328 325 323 327 334 332 311 262 239 225 218 216 214 212
123 122 117 113 108 100 91 84 81 76 73 73 62 50 47 40 37 30 21 22 17 12 13 11 9 9 10 12 12 12 16 17 13 17 17 13 10 4 2 2 0 357 354 351 349 345 340 338 338 337 336 337 338 339 340 341 342 343 341 340 341 339 334 332 330 323 319 318 316 318 325 326 324 323 327 331 334 323 282 247 229 219 216 214 211
130 124 116 107 100 99 99 90 79 73 69 67 67 59 39 27 28 22 15 15 11 5 3 2 6 8 6 7 8 8 13 14 10 15 19 16 9 2 2 4 0 355 353 351 351 349 344 342 343 343 342 342 342 344 345 345 345 346 346 347 345 341 338 339 338 332 330 327 323 326 332 329 327 327 327 331 334 329 302 257 235 225 219 215 210
137 133 130 117 110 114 110 102 86 72 66 62 61 58 40 24 22 19 16 14 10 5 358 354 0 5 5 6 4 4 8 11 11 14 14 12 11 4 356 359 359 353 350 350 349 349 348 345 344 346 347 347 346 346 347 349 348 347 348 350 349 347 346 344 341 336 333 329 324 326 327 326 329 328 326 333 338 332 317 275 241 229 223 217 211
150 158 162 146 144 149 125 119 105 65 63 54 44 40 31 23 20 14 13 14 10 6 1 354 352 359 5 6 2 3 5 6 14 23 12 9 14 6 353 352 357 352 349 349 349 349 350 349 347 348 349 348 348 346 346 349 351 350 350 350 348 349 350 347 341 337 335 332 328 322 317 323 336 336 332 337 338 333 325 298 252 228 220 216 212
172 186 194 195 191 195 178 149 99 28 41 39 28 22 9 7 9 8 12 11 3 2 4 357 347 352 5 4 359 3 5 5 15 29 23 22 18 6 356 353 353 350 349 349 349 350 352 351 350 350 349 349 351 349 349 351 352 352 351 348 345 346 346 343 339 337 339 339 331 318 314 326 342 344 342 340 335 338 340 320 275 237 222 216 214
191 201 201 205 207 218 232 228 359 16 31 10 336 353 3 349 344 355 6 2 354 359 3 356 346 348 360 358 356 3 9 11 15 23 29 44 25 7 359 356 352 348 348 348 348 350 352 352 351 350 350 350 351 350 350 351 350 349 348 346 345 344 344 343 344 345 346 341 330 324 329 337 345 351 351 345 339 344 350 339 303 254 229 219 214
206 207 200 198 199 222 247 281 344 8 23 306 308 335 3 354 339 344 358 356 352 356 355 352 348 344 350 351 353 4 13 16 15 15 10 360 355 350 344 346 347 344 344 347 350 351 352 353 351 350 349 348 347 348 346 345 345 344 345 345 343 343 343 346 352 353 349 341 333 333 336 337 343 353 355 351 345 345 352 353 333 280 240 226 218
211 204 200 200 195 208 226 218 253 341 310 283 303 331 345 349 343 335 346 352 348 348 346 346 347 341 342 348 353 2 11 16 19 17 16 13 3 356 349 344 344 346 349 352 352 352 352 352 349 348 347 344 343 344 342 341 341 341 341 341 339 339 340 343 344 342 341 345 344 337 331 336 343 348 353 356 349 343 352 1 351 313 251 232 224
212 206 211 213 200 204 212 207 206 185 288 286 302 327 329 332 339 331 330 335 335 338 340 340 343 341 339 347 356 356 2 15 27 25 22 28 25 15 10 3 355 356 6 7 359 354 352 348 346 345 344 340 338 340 339 338 337 337 337 337 335 334 335 335 333 328 332 346 346 337 333 340 343 339 345 356 354 343 348 360 358 338 265 234 228
214 212 222 229 223 222 224 233 236 196 271 283 296 317 316 319 330 326 316 317 323 330 335 338 338 336 339 350 360 349 353 11 28 29 22 24 23 17 14 10 2 357 3 4 358 354 350 345 342 339 337 335 332 332 334 335 335 335 333 333 332 331 329 329 329 329 335 345 344 337 333 336 339 331 332 345 354 347 344 352 359 354 305 236 230
222 219 227 239 249 249 239 248 264 276 285 286 295 309 308 311 321 318 308 314 322 321 325 333 335 341 352 357 348 333 345 2 17 19 19 19 15 13 14 13 7 358 354 353 350 345 339 340 340 336 335 333 329 329 331 333 335 335 331 329 328 327 325 325 331 339 343 345 343 338 332 333 341 333 325 337 351 351 344 348 357 359 348 256 225
229 233 234 241 254 258 249 253 263 276 288 291 300 308 305 306 314 312 305 310 314 310 312 319 331 349 1 2 335 318 336 350 1 10 19 21 12 9 10 10 7 360 347 339 345 347 339 336 338 336 336 335 330 330 331 332 335 334 330 329 327 324 323 325 331 338 338 341 346 342 335 335 344 342 330 334 347 351 345 347 355 359 356 331 233
230 246 252 253 258 261 261 266 268 277 293 298 304 306 304 306 309 307 305 309 314 314 304 304 325 349 1 3 351 325 321 334 347 358 9 15 11 3 1 2 4 3 349 337 342 347 346 346 345 341 340 336 332 335 335 334 337 337 335 336 333 330 328 324 326 333 335 339 347 347 341 337 342 346 339 331 340 350 349 349 355 359 357 349 289
229 248 259 259 258 259 263 267 268 277 295 304 307 306 304 306 304 301 303 308 309 304 292 291 309 335 350 358 358 343 312 310 328 343 351 360 2 351 347 351 356 359 355 344 341 339 340 346 346 342 340 336 335 344 343 337 340 342 340 341 339 336 332 324 323 330 334 339 347 349 346 339 340 346 344 331 334 347 350 347 352 358 357 353 335
232 241 249 256 257 256 259 262 271 286 299 305 308 310 307 305 299 294 299 306 300 291 284 281 290 310 333 347 353 354 336 309 320 336 337 340 349 339 328 336 345 348 347 346 342 332 331 340 341 338 337 331 331 340 339 332 339 344 341 340 339 336 330 320 320 325 328 334 341 344 347 344 340 344 346 341 334 340 346 345 348 355 357 354 349
239 243 244 252 255 255 258 263 275 292 301 306 311 314 310 301 289 284 294 299 289 280 276 277 281 292 308 323 337 347 345 328 327 335 330 326 332 327 315 317 328 333 331 331 334 328 327 336 340 337 332 322 323 332 330 329 338 339 336 338 337 333 327 319 317 318 322 329 333 337 346 348 341 339 344 345 337 335 343 344 345 353 357 355 355